Date String (YYYY-MM-DD hh:mm:ss) UTC,Instrument flags,Ambient pressure (hPa),Sample flow (lpm),Bypass flow (lpm),Sample temperature (°C),Ambient temperature (°C),ASC tube jacket temperature (°C),LED temperature (°C),Box temperature (°C),Sample RH (%),Span deviation,Mass concentration (μg/m³),Mass concentration (μg/m³),Mass concentration (μg/m³)
DateTimeUTC,F1_M11,P_M11,Q1_M11,Q2_M11,T1_M11,T2_M11,T3_M11,T4_M11,T5_M11,U1_M11,ZSPAN_M11,X0_M11,X2_M11,X1_M11
2021-10-01 17:00:00,,0831.3,5.01,0.00,29.9,29.2,00.0,39.0,31.7,20.6,-000.2,0010.79,0005.08,0004.56
2021-10-01 17:01:00,,0831.3,4.98,0.00,29.9,29.2,00.0,39.0,31.7,20.1,-000.3,0010.44,0005.09,0004.55
2021-10-01 17:02:00,,0831.3,5.01,0.00,29.9,29.2,00.0,39.0,31.8,19.8,0000.0,0010.42,0005.11,0004.55
2021-10-01 17:03:00,,0831.3,4.99,0.00,29.9,29.2,00.0,39.0,31.8,19.9,0000.6,0010.30,0005.15,0004.53
2021-10-01 17:04:00,,0831.4,4.99,0.00,30.0,29.2,00.0,39.0,31.8,19.5,0000.9,0010.45,0005.14,0004.51
2021-10-01 17:05:00,,0831.3,5.02,0.00,30.0,29.2,00.0,39.0,31.7,19.6,0001.6,0010.59,0005.14,0004.52
2021-10-01 17:06:00,,0831.3,5.00,0.00,30.0,29.2,00.0,39.0,31.7,19.6,0001.6,0010.36,0005.14,0004.50
2021-10-01 17:07:00,,0831.4,5.00,0.00,30.0,29.2,00.0,39.0,31.8,19.3,0001.6,0010.80,0005.16,0004.49
2021-10-01 17:08:00,,0831.4,5.00,0.00,30.0,29.3,00.0,39.0,31.8,19.3,0001.5,0010.98,0005.16,0004.48
2021-10-01 17:09:00,,0831.4,4.99,0.00,30.0,29.3,00.0,39.1,31.8,19.3,0001.4,0011.10,0005.19,0004.49
2021-10-01 17:10:00,,0831.3,5.00,0.00,30.0,29.3,00.0,39.1,31.8,19.2,0000.9,0010.69,0005.16,0004.50
2021-10-01 17:11:00,,0831.3,5.01,0.00,30.0,29.3,00.0,39.1,31.8,19.3,0001.0,0010.05,0005.15,0004.50
2021-10-01 17:12:00,,0831.4,5.00,0.00,30.0,29.3,00.0,39.1,31.8,19.1,0000.8,0010.10,0005.15,0004.50
2021-10-01 17:13:00,,0831.4,4.99,0.00,30.0,29.3,00.0,39.1,31.8,19.0,0000.6,0010.54,0005.11,0004.48
2021-10-01 17:14:00,,0831.4,5.01,0.00,30.0,29.3,00.0,39.1,31.9,18.9,-000.0,0010.68,0005.09,0004.47
2021-10-01 17:15:00,,0831.4,5.01,0.00,30.0,29.3,00.0,39.1,31.9,19.0,-000.4,0010.84,0005.09,0004.46
2021-10-01 17:16:00,,0831.4,5.00,0.00,30.1,29.3,00.0,39.1,31.8,18.9,-000.8,0011.38,0005.09,0004.44
2021-10-01 17:17:00,,0831.4,5.00,0.00,30.1,29.3,00.0,39.1,31.8,19.7,-000.9,0011.40,0005.07,0004.43
2021-10-01 17:18:00,,0831.4,5.00,0.00,30.1,29.4,00.0,39.1,31.9,19.6,-000.8,0011.37,0005.07,0004.44
2021-10-01 17:19:00,,0831.4,5.00,0.00,30.1,29.3,00.0,39.1,31.9,19.3,-000.6,0011.34,0005.06,0004.44
2021-10-01 17:20:00,,0831.4,5.01,0.00,30.1,29.3,00.0,39.1,31.9,19.5,-000.6,0011.34,0005.05,0004.44
2021-10-01 17:21:00,,0831.4,5.00,0.00,30.1,29.3,00.0,39.1,31.9,19.4,0000.3,0011.55,0005.08,0004.46
2021-10-01 17:22:00,,0831.4,4.98,0.00,30.1,29.4,00.0,39.1,31.9,19.3,0000.9,0011.81,0005.07,0004.45
2021-10-01 17:23:00,,0831.4,5.01,0.00,30.1,29.4,00.0,39.1,31.9,19.3,0000.9,0012.47,0005.07,0004.44
2021-10-01 17:24:00,,0831.5,5.01,0.00,30.1,29.4,00.0,39.2,31.9,20.2,0000.8,0012.49,0005.16,0004.49
2021-10-01 17:25:00,,0831.5,5.00,0.00,30.1,29.4,00.0,39.2,31.9,19.9,0001.3,0012.51,0005.24,0004.54
2021-10-01 17:26:00,,0831.5,5.00,0.00,30.1,29.4,00.0,39.2,32.0,19.7,0001.6,0012.23,0005.31,0004.61
2021-10-01 17:27:00,,0831.4,5.00,0.00,30.1,29.4,00.0,39.2,31.9,20.0,0001.7,0011.66,0005.41,0004.69
2021-10-01 17:28:00,,0831.5,4.99,0.00,30.2,29.4,00.0,39.2,32.0,20.1,0001.7,0011.57,0005.49,0004.78
2021-10-01 17:29:00,,0831.5,5.01,0.00,30.2,29.4,00.0,39.2,31.9,20.1,0001.6,0011.77,0005.58,0004.87
2021-10-01 17:30:00,,0831.5,5.00,0.00,30.2,29.4,00.0,39.2,32.0,20.0,0001.1,0011.79,0005.73,0004.99
2021-10-01 17:31:00,,0831.5,4.99,0.00,30.1,29.4,00.0,39.2,31.9,19.8,0001.0,0011.97,0005.86,0005.11
2021-10-01 17:32:00,,0831.5,5.00,0.00,30.1,29.4,00.0,39.2,31.9,19.8,0000.4,0011.99,0005.98,0005.22
2021-10-01 17:33:00,,0831.5,5.00,0.00,30.1,29.4,00.0,39.2,31.9,19.7,0000.0,0011.92,0006.08,0005.33
2021-10-01 17:34:00,,0831.4,4.99,0.00,30.1,29.3,00.0,39.2,31.9,19.6,0000.3,0011.59,0006.15,0005.42
2021-10-01 17:35:00,,0831.5,5.01,0.00,30.1,29.3,00.0,39.2,31.9,19.8,0000.6,0011.21,0006.18,0005.47
2021-10-01 17:36:00,,0831.5,4.98,0.00,30.1,29.4,00.0,39.2,31.9,20.2,0000.2,0011.26,0006.17,0005.50
2021-10-01 17:37:00,,0831.4,5.01,0.00,30.1,29.4,00.0,39.2,31.9,19.5,0000.0,0011.28,0006.19,0005.51
2021-10-01 17:38:00,,0831.5,5.00,0.00,30.1,29.4,00.0,39.2,31.9,19.3,-000.1,0011.69,0006.19,0005.52
2021-10-01 17:39:00,,0831.5,4.99,0.00,30.1,29.4,00.0,39.2,31.9,19.4,0000.0,0011.95,0006.21,0005.51
2021-10-01 17:40:00,,0831.4,5.01,0.00,30.2,29.4,00.0,39.2,31.9,19.5,0000.2,0012.22,0006.21,0005.49
2021-10-01 17:41:00,,0831.4,4.99,0.00,30.2,29.4,00.0,39.2,31.9,19.3,0000.3,0012.39,0006.14,0005.43
2021-10-01 17:42:00,,0831.4,5.00,0.00,30.2,29.5,00.0,39.2,31.9,19.4,0000.4,0012.43,0006.13,0005.39
2021-10-01 17:43:00,,0831.5,4.99,0.00,30.2,29.5,00.0,39.3,32.0,19.6,0000.6,0012.29,0006.07,0005.35
2021-10-01 17:44:00,,0831.4,5.00,0.00,30.2,29.5,00.0,39.3,32.0,19.3,0000.9,0012.71,0006.09,0005.34
2021-10-01 17:45:00,,0831.4,5.00,0.00,30.2,29.5,00.0,39.3,32.0,19.4,0000.6,0012.96,0006.12,0005.35
2021-10-01 17:46:00,,0831.5,5.00,0.00,30.3,29.5,00.0,39.3,32.0,19.4,0000.4,0013.49,0006.13,0005.37
2021-10-01 17:47:00,,0831.4,5.00,0.00,30.3,29.5,00.0,39.3,32.1,19.4,0000.5,0013.68,0006.14,0005.38
2021-10-01 17:48:00,,0831.5,5.00,0.00,30.3,29.5,00.0,39.3,32.0,19.6,0000.5,0014.72,0006.18,0005.42
2021-10-01 17:49:00,,0831.5,5.01,0.00,30.3,29.5,00.0,39.3,32.1,19.5,0000.4,0014.45,0006.19,0005.43
2021-10-01 17:50:00,,0831.5,5.01,0.00,30.3,29.5,00.0,39.3,32.0,19.5,0000.6,0014.61,0006.22,0005.45
2021-10-01 17:51:00,,0831.4,5.00,0.00,30.3,29.6,00.0,39.3,32.0,19.7,0000.7,0015.06,0006.28,0005.47
2021-10-01 17:52:00,,0831.4,4.98,0.00,30.3,29.6,00.0,39.3,32.0,19.9,0000.7,0014.92,0006.30,0005.50
2021-10-01 17:53:00,,0831.4,5.01,0.00,30.3,29.6,00.0,39.4,32.1,20.0,0000.9,0015.14,0006.33,0005.52
2021-10-01 17:54:00,,0831.4,5.01,0.00,30.3,29.6,00.0,39.4,32.1,19.8,0001.0,0015.76,0006.38,0005.55
2021-10-01 17:55:00,,0831.4,5.00,0.00,30.3,29.6,00.0,39.4,32.1,19.8,0000.6,0015.52,0006.38,0005.59
2021-10-01 17:56:00,,0831.4,5.00,0.00,30.3,29.6,00.0,39.4,32.1,20.3,0000.6,0015.07,0006.40,0005.64
2021-10-01 17:57:00,,0831.4,5.01,0.00,30.4,29.6,00.0,39.4,32.1,20.2,0000.4,0014.94,0006.47,0005.68
2021-10-01 17:58:00,,0831.4,4.99,0.00,30.4,29.6,00.0,39.4,32.1,20.1,0000.1,0014.89,0006.55,0005.76
2021-10-01 17:59:00,,0831.3,5.00,0.00,30.4,29.6,00.0,39.4,32.1,20.0,-000.0,0014.33,0006.63,0005.84
